Flag for Brazil Weather past 2 weeks in São Paulo, São Paulo, Brazil

Now
59 °F

Overcast.


Feels Like: 57 °F
Forecast: 60 / 67 °F
Wind: 10 mph from Southeast

Location: Sao Paulo Airport

Current Time: Oct 22, 2014 at 5:54:54 AM

Latest Report: Oct 22, 2014 at 5:00 AM


Visibility: N/A

Pressure: 30.18 "Hg

Humidity: 77%

Dew point: 52 °F

Location of São PauloLocation

Historic Weather in São Paulo — Graph

°F

São Paulo temperature yesterday

Maximum temperature yesterday: 66 °F (at 1:00 PM)
Minimum temperature yesterday: 61 °F (at 12:00 AM)
Average temperature yesterday: 62 °F

Past Weeks' High & Low Weather Summary

 TemperatureHumidityPressure
High97 °F (Oct 13, 2:00 PM)88% (Oct 17, 2:00 AM)30.24 "Hg (Oct 17, 2:00 AM)
Low59 °F (Oct 7, 4:00 AM)13% (Oct 12, 3:00 PM)29.89 "Hg (Oct 19, 4:00 PM)
Average73 °F56%30.09 "Hg
* Reported Oct 7 4:00 AM — Oct 22 5:00 AM, São Paulo, Weather by CustomWeather, © 2014

Note: Actual official high and low records may vary slightly from our data, if they occured in-between our weather recording intervals... More about our weather records

Advertising

São Paulo weather history for previous 24 hours

 ConditionsComfort  
Time TempWeatherWind HumidityBarometerVisibility
5:00 AM
Oct 22
59 °FOvercast.10 mph77%30.18 "HgN/A
4:00 AM59 °FLow clouds.13 mph82%30.18 "HgN/A
2:00 AM61 °FMostly cloudy.8 mph72%30.21 "HgN/A
1:00 AM61 °FMostly cloudy.12 mph77%30.21 "HgN/A
12:00 AM61 °FMostly cloudy.10 mph77%30.24 "HgN/A
11:00 PM
Oct 21
61 °FMostly cloudy.12 mph72%30.24 "HgN/A
10:00 PM61 °FMostly cloudy.12 mph72%30.24 "HgN/A
9:00 PM61 °FPassing clouds.13 mph72%30.21 "HgN/A
8:00 PM61 °FPassing clouds.15 mph68%30.21 "HgN/A
7:00 PM63 °FPartly sunny.12 mph64%30.18 "HgN/A
6:00 PM64 °FPartly sunny.14 mph60%30.18 "HgN/A
5:00 PM64 °FMostly cloudy.16 mph56%30.18 "HgN/A
4:00 PM64 °FPartly sunny.15 mph64%30.18 "HgN/A
3:00 PM64 °FPartly sunny.15 mph64%30.21 "HgN/A
2:00 PM66 °FPartly sunny.16 mph56%30.21 "HgN/A
1:00 PM66 °FPartly sunny.12 mph60%30.24 "HgN/A
12:00 PM64 °FPartly sunny.14 mph64%30.24 "HgN/A
11:00 AM61 °FMostly cloudy.13 mph77%30.24 "HgN/A
10:00 AM61 °FMostly cloudy.12 mph77%30.24 "HgN/A
9:00 AM61 °FLight rain. Mostly cloudy.13 mph83%30.21 "HgN/A
8:00 AM61 °FMostly cloudy.14 mph77%30.18 "HgN/A
7:00 AM61 °FMostly cloudy.16 mph77%30.18 "HgN/A
6:00 AM61 °FMostly cloudy.16 mph77%30.15 "HgN/A
5:00 AM61 °FOvercast.14 mph83%30.15 "Hg5 mi
Weather by CustomWeather, © 2014

See weather overviewHow to use our weather pages